TimeMST,TemperatureF,Dew PointF,Humidity,Sea Level PressureIn,VisibilityMPH,Wind Direction,Wind SpeedMPH,Gust SpeedMPH,PrecipitationIn,Events,Conditions,WindDirDegrees,DateUTC
12:51 AM,59.0,46.9,64,29.96,10.0,Calm,Calm,-,N/A,,Mostly Cloudy,0,2013-02-04 07:51:00
1:51 AM,60.1,46.9,62,29.96,10.0,Calm,Calm,-,N/A,,Overcast,0,2013-02-04 08:51:00
3:51 AM,60.8,48.2,63,29.98,10.0,East,3.5,-,N/A,,Overcast,90,2013-02-04 10:51:00
4:51 AM,59.0,48.0,67,29.95,10.0,Calm,Calm,-,N/A,,Overcast,0,2013-02-04 11:51:00
5:51 AM,59.0,46.9,64,29.96,10.0,Calm,Calm,-,N/A,,Overcast,0,2013-02-04 12:51:00
6:51 AM,57.9,48.9,72,29.97,10.0,Calm,Calm,-,N/A,,Mostly Cloudy,0,2013-02-04 13:51:00
7:51 AM,57.9,48.0,70,29.98,10.0,Calm,Calm,-,N/A,,Mostly Cloudy,0,2013-02-04 14:51:00
8:51 AM,61.0,45.0,56,29.99,10.0,Calm,Calm,-,N/A,,Scattered Clouds,0,2013-02-04 15:51:00
9:51 AM,64.0,46.0,52,30.00,10.0,Calm,Calm,-,N/A,,Scattered Clouds,0,2013-02-04 16:51:00
10:51 AM,66.9,44.1,44,30.00,10.0,Variable,3.5,-,N/A,,Partly Cloudy,0,2013-02-04 17:51:00
11:51 AM,69.1,39.9,35,29.99,10.0,NNE,4.6,-,N/A,,Partly Cloudy,30,2013-02-04 18:51:00
12:51 PM,71.1,41.0,34,29.96,10.0,Calm,Calm,-,N/A,,Scattered Clouds,0,2013-02-04 19:51:00
1:51 PM,73.0,39.9,30,29.93,10.0,NNE,6.9,-,N/A,,Scattered Clouds,30,2013-02-04 20:51:00
2:51 PM,75.0,41.0,29,29.91,10.0,Calm,Calm,-,N/A,,Scattered Clouds,0,2013-02-04 21:51:00
3:51 PM,73.9,39.9,29,29.89,10.0,Calm,Calm,-,N/A,,Scattered Clouds,0,2013-02-04 22:51:00
4:51 PM,73.9,39.9,29,29.88,10.0,SW,4.6,-,N/A,,Scattered Clouds,220,2013-02-04 23:51:00
5:51 PM,72.0,39.0,30,29.88,10.0,Calm,Calm,-,N/A,,Clear,0,2013-02-05 00:51:00
6:51 PM,69.1,44.1,40,29.89,10.0,WSW,4.6,-,N/A,,Clear,240,2013-02-05 01:51:00
7:51 PM,66.9,42.1,40,29.92,10.0,West,3.5,-,N/A,,Clear,260,2013-02-05 02:51:00
8:51 PM,64.9,43.0,45,29.94,10.0,Calm,Calm,-,N/A,,Clear,0,2013-02-05 03:51:00
9:51 PM,63.0,44.1,50,29.94,10.0,Calm,Calm,-,N/A,,Clear,0,2013-02-05 04:51:00
10:51 PM,62.1,45.0,53,29.95,10.0,Calm,Calm,-,N/A,,Clear,0,2013-02-05 05:51:00
11:51 PM,60.1,45.0,57,29.95,10.0,Calm,Calm,-,N/A,,Clear,0,2013-02-05 06:51:00